Showing default

QIANFAN-55, 62785

Orbit data source: Space-Track

QIANFAN-55, 62785 is a Chinese payload satellite in LEO that was launched on Thu, 23 Jan 2025 UTC via a CHANG ZHENG 6A launch vehicle from the Taiyaun Space Center, China (TSC). Payload-class satellites include a variety of spacecraft equipped with specific instruments for various scientific and technological missions. These include communications satellites like Starlink; space stations such as the ISS; scientific satellites like the Hubble; Earth observation satellites from companies like Planet Labs, Umbra, and HawkEye 360; GPS; miniature CubeSats for education and research; and military/defense satellites.

Loading next visibility...
Identifier
62785, 2025-016A
Orbit
LEO
Country
Flag of CNCN / PRC
Related business
Manufacturer
SECM
Mission
Operational Commercial Communications
Bus & Motor
QIANFAN, Unknown motor
Mass
267 kg wet, ~267 kg dry
Launch date (UTC)
2025-01-23 (2 years ago)
Launch vehicle
CHANG ZHENG 6A
Launch site
Taiyaun Space Center, China (TSC)
Object type
Payload
Rocket body
Debris
Shape & HBR
Box + 1 Pan, 5.0 m
Radar Cross Section
13.200 m², Large (>1 m²)

Expand to show TLE details & history
Last TLE update: 8 hours ago

TLE from 8 hours ago
0 QIANFAN-55
1 62785U 25016A   26257.58631113  .00000030  00000-0  28778-4 0  9991
2 62785  88.9669  74.5740 0015499 271.5771  88.3604 13.51024597 84436
Epoch: 2026-09-14T14:04Z
TLE epoch observation values (Epoch: 2026-09-14T14:04:17.281Z)
Latitude
-0.00011°
Longitude
-130.06249°
Altitude
1,071.132 km
Speed
7.317 km/s
True Right ascension
04h 58m 17s
True Declination
0° 00' 00"
Sunlit
Object was in daylight at epoch
Visualization orbit readout
Latitude
Unknown
Longitude
Unknown
Altitude
Unknown
Speed
Unknown
Apparent Right ascension
Unknown
Apparent Declination
Unknown
Sunlit
N/A
Visualization observer readout
Local Sidereal Time
14:59:03
Azimuth
Unknown
Elevation
Unknown
Doppler factor
Unknown
Orbital elements
Apogee altitude
1,077.079 km
Perigee altitude
1,054.005 km
Semi-major axis
7,443.679 km
Eccentricity
0.00155
Inclination
88.9669°
RAAN
74.574°
Arg. of periapsis
271.5771°
True anomaly
88.53794°
Mean anomaly
88.3604°
Eccentric anomaly
88.44917°
Mean motion
3.37957 °/min
Orbital period
106.52 mins
BSTAR
0.000028778
Loading maneuver chart data...
Computing Atmospheric mass density...
Loading historical data...
Loading historical data...
Loading historical data...
Loading historical data...
Loading historical data...
Loading historical data...
Loading historical data...

Documentation

Showing up to 5 results
|